Regional Weather Roundup
Issued by NWS New Orleans/Baton Rouge, LA

Home | Current Version | Previous Version | Text Only | Print | Product List | Glossary On
Versions: 1 2 3 4 5 6 7 8 9 10 11 12 13 14 15 16 17 18 19 20 21 22 23 24 25 26 27 28 29 30 31 32 33 34 35 36 37 38 39 40 41 42 43 44 45 46 47 48 49 50
000
ASUS44 KLIX 261710
RWRLIX
NEW ORLEANS REGIONAL WEATHER ROUNDUP
NATIONAL WEATHER SERVICE NEW ORLEANS LA
1100 AM CST WED NOV 26 2014

NOTE: "FAIR" INDICATES FEW OR NO CLOUDS BELOW 12,000 FEET WITH NO
      SIGNIFICANT WEATHER AND/OR OBSTRUCTIONS TO VISIBILITY.
      SKY/WX - SKY CONDITION AND SIGNIFICANT WEATHER.
      TMP - AIR TEMPERATURE.     DP    - DEWPOINT TEMPERATURE.
      RH  - RELATIVE HUMIDITY.   PRES  - PRESSURE.
      HI  - HEAT INDEX.          WCI   - WIND CHILL INDEX.

*  THESE STATIONS ARE NOT NWS OR FAA STATIONS AND ARE NOT UNDER
   NWS QUALITY CONTROL.

LAZ038-040-048-061>063-065>067-069-261800-
SOUTHEAST LOUISIANA

CITY           SKY/WX    TMP DP  RH WIND       PRES   REMARKS
N.O. AUDUBON     N/A     64  36  35 MISG        N/A
N.O. INTL ARPT SUNNY     59  35  40 S8        30.26F
N.O. LAKEFRONT SUNNY     57  36  45 NE5       30.27F
N.O. DOWNTOWN*   N/A     59  32  36 S6        30.28F
SLIDELL        SUNNY     58  31  35 S7        30.26F
BATON ROUGE    SUNNY     62  41  46 SW12      30.23F
BOOTHVILLE     SUNNY     58  35  42 VRB3      30.30F
BELLE CHASSE   SUNNY     61  30  31 S6        30.27F
BOGALUSA*        N/A     59  28  31 SW6       30.25F
NEW ROADS*       N/A     62  42  48 S9        30.23F
GONZALES*        N/A     62  39  43 S8        30.24F
HAMMOND*       SUNNY     61  34  36 S10       30.26F
HOUMA*         NOT AVBL
PORT FOURCHON* SUNNY     61  30  31 SW7       30.31F

$$

MSZ070-080>082-261800-
SOUTHERN MISSISSIPPI

CITY           SKY/WX    TMP DP  RH WIND       PRES   REMARKS
MCCOMB         SUNNY     59  35  40 S10G18    30.21F
GULFPORT       SUNNY     54  29  38 S6        30.26F
BILOXI         SUNNY     55  30  38 SW6       30.27F
PASCAGOULA     SUNNY     59  26  28 W5        30.26F
STENNIS ARPT*  SUNNY     55  21  26 SW6       30.27F

$$

COASTAL OBSERVATIONS
LAKE AND NEARSHORE STATIONS

STATION/POSITION TIME  TEMP    WIND        PRES    WAVE
                       AIR SEA DIR/SP/G            HT/PER
                 (UTC) (F)     (DEG/KT/KT) (MB)    (FT/S)
PASCAGOULA       1700   52     220/  7/  8 1024.4
WAVELAND YACHT   1700   50     160/  8/ 10 1024.0
GRAND ISLE       1700   57 59  190/  4/  6 1025.7
SOUTHWEST PASS   1700   64                 1026.4
NEW CANAL        1700          220/  5/  8 1025.3
SHELL BEACH      1700   52 52   20/  4/  5 1025.1

OFFSHORE STATIONS

STATION/POSITION TIME  TEMP    WIND        PRES    WAVE
                       AIR SEA DIR/SP/G            HT/PER
                 (UTC) (F)     (DEG/KT/KT) (MB)    (FT/S)
64 S DAUPHIN ISL 1608   58 71  320/ 10/ 12 1026.1    3/ 5

$$



USA.gov is the U.S. government's official web portal to all federal, state and local government web resources and services.